Reflectivity
27 20 16 15 15 17 32 31 32 30 30 31 24 22 6 4 2 -10 -20 -20 -20 -20 -20 -20 -20 -20 -20 -20 -20 -18 -20 -9 7 -20 -20 -20 -20 -20 -20 -18 -9 -20 -2
26 -7 14 15 5 24 19 28 27 19 13 7 0 -4 -8 -20 -20 -20 -20 -20 -20 -20 -20 -20 -20 -20 -20 -20 -20 -20 -20 -19 -2 -20 -20 -20 -20 -6 -20 -20 -20 -20 -20
24 -20 -3 6 11 8 18 21 11 10 -10 -20 -20 -19 -18 -20 -20 -20 -20 -20 -20 -20 -20 -20 -20 -20 -20 -20 -20 -20 -20 -20 6 -16 -20 -20 -20 -20 -20 -16 -17 -20 -1
20 -20 -7 -16 -7 -1 20 18 14 -8 -20 -20 -20 -20 -20 -20 -20 -20 -20 -20 -20 -20 -20 -20 -20 -20 -20 -20 -20 -20 -19 -20 -20 -20 -18 -13 -20 -20 -20 -20 -20 -18 -11
-18 -8 -20 -20 -20 1 4 22 -14 -20 -20 -20 -20 -20 -20 -20 -20 -20 -20 -20 -20 -20 -20 -20 -20 -20 -20 -20 -20 -20 -20 -20 -7 -18 -19 0 -20 -20 -12 -17 17 15 12
-20 26 -20 -20 -20 -20 -20 -20 18 -20 -20 -20 -20 -20 -20 -20 -20 -20 -20 -20 -20 -20 -20 -20 -20 -20 -20 -20 -20 -20 -20 -20 -20 -3 -20 -18 4 -20 -10 -12 11 8 11
-20 -20 -20 -20 -20 -20 -20 -19 -20 -20 -20 -20 -20 -20 -20 -20 -20 -20 -20 -20 -20 -20 -20 -20 -20 -20 -20 -20 -20 -20 -20 -20 -20 -20 -20 -20 -20 -20 -20 -20 -20 -15 -3
-20 -20 -20 -20 -20 -20 -20 -20 -20 -20 -20 -20 -20 -20 -20 -20 -20 -20 -20 -20 -20 -20 -20 -20 -20 -20 -20 -20 -20 -20 -20 -20 -20 -20 -6 -0 -20 -20 -20 -20 -20 -3 7
-20 -20 -0 -20 -20 -20 -20 -20 -20 -20 -20 -20 -20 -20 -20 -20 -20 -20 -20 -20 -20 -20 -20 -20 -20 -20 -20 -20 -20 -20 -20 -20 -20 -13 7 7 11 6 -11 -10 -12 -15 -5
-20 -20 -20 -20 -20 -20 -20 -20 -20 -20 -20 -20 -20 -20 -20 -20 -20 -20 -20 -20 -20 -20 -20 -20 -20 -20 -20 -20 -20 -20 -20 -20 -20 -20 -20 2 5 3 3 -10 -20 -20 -20
-20 -20 -20 -20 -20 -20 -20 -20 -20 -20 -20 -20 -20 -20 -20 -20 -20 -20 -20 -20 -20 -20 -20 -20 -20 -20 -20 -20 1 -20 -20 -20 -20 -20 -20 -20 -11 -12 -5 -3 -3 -8 -18
-20 -20 -20 -20 -20 -20 -20 -20 -20 -20 -20 -20 -20 -20 -20 -20 -20 -20 -20 -4 -14 -20 -20 -20 -20 -20 -20 -20 -20 6 3 -20 -20 -20 -20 -20 -20 -20 -20 -20 -20 -19 -20
-20 -20 -20 -20 -20 -20 -20 -20 -20 -20 -20 -20 -20 -20 -20 -20 -20 -20 -20 -20 8 -9 -20 -8 -20 -20 -20 -20 -20 -20 -12 -20 -20 -20 -20 -20 -20 -20 -20 -20 -20 -20 -20
-20 -20 -20 -20 -20 -20 -20 -20 -20 -20 -20 -20 -20 -20 -20 -20 -20 -20 -20 -20 -20 -20 -10 -20 -20 -20 -19 -15 -20 -20 -20 -20 -20 -20 -20 -20 -20 -20 -20 -20 -20 -20 -20
24 17 19 -2 -5 -9 -20 -20 -20 -20 -20 -20 -20 -20 -20 -20 -20 -20 -20 -20 -20 -20 -20 -20 -20 -20 -20 -20 -20 -20 -20 -20 -20 -20 -20 -20 -20 -20 -20 -20 -20 -20 -20
-18 -14 17 9 4 21 34 32 28 21 26 14 2 1 7 19 2 -20 -16 -20 -20 -20 -20 -20 -20 -20 -20 -20 -20 -20 -20 -20 -20 -20 -20 -20 -20 -20 -20 -20 -20 -20 -20
-20 -20 -20 -20 -20 -20 -16 -8 11 22 26 32 27 18 16 11 8 9 -4 -8 -20 -12 -17 -20 -20 -20 -20 -20 -20 -20 -20 -20 -20 -20 -20 -20 -20 -20 -20 -20 -20 -20 -20
-18 8 -19 -20 -20 -20 -20 -20 -20 -18 -4 -10 -15 -13 -8 -1 5 -5 -9 5 -19 -7 -20 -20 -20 -20 -20 -20 -20 -20 -20 -20 -20 -20 -20 -20 -20 -16 -20 -20 -20 -20 -20
15 4 -12 -20 -20 -9 -19 -20 -20 -20 -20 -20 -20 -20 -17 -12 2 5 -0 -13 -16 -18 -20 -20 -20 -20 -19 -20 -20 -20 -20 -20 -20 -20 -20 -20 -20 -2 -20 -20 -20 -20 -20
2 10 13 2 -20 -20 -20 -20 -20 -20 -20 -20 -19 -7 -5 2 -7 -18 -20 6 -2 0 -16 -17 -20 -7 -3 -18 -14 -14 -15 -19 -20 -20 -20 -20 -20 -20 -20 -20 -20 -20 -20
-20 -2 -0 -19 -20 -17 -15 -20 -20 -18 -18 -6 11 13 22 19 18 17 18 17 13 8 7 -6 -10 -3 -1 2 -7 -15 -18 -20 -20 -20 -20 -20 -20 -20 -20 -20 -20 -20 -20
-20 -20 -7 -0 0 -1 -6 -15 -10 -20 -18 -12 5 22 18 23 12 9 13 15 15 15 22 22 14 8 1 2 -0 -2 -5 -12 -15 -10 -18 -20 -20 -20 -20 -20 -20 -20 -20
-20 -20 -20 -20 -3 2 2 5 -10 -20 -20 -20 -20 -20 -14 -9 -12 -11 5 -4 -7 13 17 14 2 -4 -3 3 23 12 -3 -8 -8 -2 -3 -16 -19 -20 -20 -20 -20 -20 -20
-20 -20 -20 -20 -20 -20 -17 -17 -9 -20 -20 -20 -20 -20 -20 -20 -20 -20 -20 -20 -20 -20 -20 -12 -6 -10 1 5 17 20 17 8 6 -2 -1 1 -3 -18 -16 -16 -16 -18 -18
-20 -20 -20 -20 -20 -20 -20 -20 -20 -20 -20 -20 -20 -20 -20 -20 -20 -20 -20 -20 -20 -20 -20 -20 -20 -20 -20 -20 -20 -20 -0 3 6 11 -3 -14 -1 1 -1 -16 -18 -17 -15
-20 -20 -20 -20 -20 -20 -20 -16 -10 -2 -2 -14 -12 -13 -19 -20 -20 -20 -20 -20 -20 -18 -20 -20 -20 -20 -20 -20 -20 -20 -10 -11 -10 9 -5 -3 -14 -10 2 0 -17 -9 -17
Wind_Speed
12 12 12 11 10 11 10 9 9 9 11 11 10 10 9 8 8 7 6 6 6 5 5 4 4 3 3 3 3 3 4 5 6 2 2 0 1 5 4 3 2 2 2
12 11 9 8 8 9 8 9 10 11 10 11 10 10 9 8 7 8 8 6 6 6 5 5 4 2 2 2 2 4 4 4 1 4 2 2 4 4 4 5 2 1 1
11 12 11 11 11 11 9 9 10 11 12 11 11 10 9 8 8 7 7 7 7 6 5 5 4 1 1 2 3 4 4 3 4 3 2 1 2 2 2 2 2 2 2
11 12 12 12 11 11 10 10 10 11 11 10 9 10 9 8 8 8 8 7 6 5 5 4 4 1 2 3 4 4 5 5 3 3 1 2 2 1 1 2 2 0 1
10 10 11 11 11 11 10 10 10 10 9 10 11 10 10 8 6 7 6 6 5 5 4 3 3 2 3 4 4 3 5 5 4 3 2 2 2 2 4 2 2 2 0
8 9 10 11 11 10 10 10 10 10 11 10 9 10 9 6 10 8 7 6 5 4 3 3 2 2 3 3 3 4 5 4 3 3 2 3 3 2 2 3 3 3 3
8 8 8 10 11 11 11 11 11 10 9 9 9 8 8 8 11 10 8 6 5 4 3 2 2 1 4 4 1 2 3 5 3 4 5 5 3 2 3 4 4 3 3
9 8 7 8 9 9 10 10 9 10 10 10 9 9 9 8 12 10 8 6 5 4 3 3 1 3 4 4 4 4 5 4 3 4 5 6 5 4 4 3 4 4 3
6 8 9 9 9 9 9 10 8 8 8 8 7 8 9 8 10 12 9 6 5 4 4 1 2 4 2 4 3 3 5 4 2 3 5 7 6 6 4 4 3 4 2
5 6 7 7 8 9 9 9 5 7 6 5 6 6 5 8 11 13 10 5 4 3 3 3 3 6 4 4 6 5 5 4 2 2 2 4 6 7 5 2 3 3 3
4 7 8 7 7 8 8 6 7 8 8 7 7 7 8 7 9 9 8 3 2 3 3 4 3 4 5 7 8 6 4 2 1 1 1 2 2 2 2 2 2 0 2
2 3 2 4 4 5 7 5 7 7 7 7 6 4 3 4 6 6 7 9 4 5 5 2 2 4 6 7 8 9 6 3 2 2 1 1 2 1 1 3 3 2 2
5 5 5 4 4 5 6 5 4 6 5 5 4 4 5 5 6 12 10 10 12 8 4 4 6 5 7 8 9 7 6 4 4 3 2 2 1 0 2 2 3 4 4
4 4 4 5 5 5 4 5 6 6 6 6 6 5 5 5 6 5 6 6 10 7 4 5 5 4 5 6 5 5 4 4 4 4 3 2 2 2 2 2 1 2 1
4 4 3 2 1 2 3 4 5 5 5 5 5 5 5 6 4 6 6 5 4 4 3 2 2 3 4 4 5 4 4 5 5 4 4 4 4 3 3 3 2 2 3
4 3 2 1 1 2 2 3 5 6 6 9 6 5 3 5 5 7 8 9 8 8 3 3 4 4 4 4 5 5 6 6 5 5 5 5 5 4 4 3 3 4 4
6 6 4 4 4 3 2 2 2 2 8 9 11 11 11 6 9 10 12 12 11 8 3 4 4 5 5 4 4 6 6 5 2 4 5 5 5 5 6 5 5 5 5
6 6 4 4 4 4 4 4 3 4 4 3 7 10 11 12 11 12 13 10 5 7 4 5 5 5 5 5 5 5 6 5 5 5 5 5 5 5 6 6 6 7 6
4 4 4 3 3 3 3 3 4 4 5 6 4 4 5 9 10 11 12 5 4 4 5 5 5 5 5 5 5 6 6 5 5 5 5 5 6 6 7 6 6 10 9
3 6 6 3 3 3 2 3 3 3 4 4 3 3 1 4 3 3 3 2 3 3 3 4 4 4 5 5 5 4 5 6 5 6 6 5 5 6 7 7 7 7 8
2 3 5 4 4 4 3 3 3 3 3 3 3 3 6 3 3 3 3 3 3 3 3 4 4 4 4 4 4 5 5 5 6 6 6 6 6 7 7 8 7 7 7
2 2 3 3 3 4 4 4 4 3 3 3 2 2 5 1 1 1 1 1 2 2 2 3 3 3 4 4 4 5 5 5 5 6 6 6 6 7 7 8 8 7 8
2 2 2 3 3 4 3 3 3 4 3 3 3 3 3 2 2 2 2 1 2 2 1 2 2 3 3 3 4 4 5 5 4 5 6 6 6 6 6 7 8 8 8
3 3 3 3 3 3 3 3 3 4 4 3 3 3 3 3 3 3 3 3 3 3 3 2 3 4 2 2 3 3 3 3 3 4 7 6 6 7 7 8 7 9 8
4 4 3 3 3 3 3 4 4 4 4 4 3 3 3 3 4 4 4 4 4 4 3 4 3 4 4 5 4 5 6 10 6 6 5 7 8 8 8 7 8 9 10
4 4 4 3 3 3 4 4 4 4 4 4 4 4 4 4 5 5 4 4 4 3 4 5 6 7 7 6 6 8 11 12 9 12 7 6 7 7 7 9 12 9 10
Wind_Direction
148 164 172 165 169 165 174 175 164 144 158 148 148 156 148 151 160 154 144 152 159 156 169 169 181 193 217 226 236 237 252 253 256 259 292 309 254 218 197 197 184 195 147
143 146 154 135 137 150 147 147 143 143 140 136 142 143 147 146 148 156 154 164 163 167 170 183 168 194 214 232 285 273 255 266 283 273 208 236 233 231 195 176 167 82 29
138 131 131 134 139 136 134 139 137 140 135 140 143 139 139 144 147 154 153 155 158 150 155 151 120 246 217 279 252 280 288 298 260 254 241 216 219 182 132 92 134 86 54
135 138 137 137 137 139 139 139 139 137 135 134 134 135 141 148 148 149 150 144 139 129 117 115 113 114 283 271 278 286 284 267 268 259 254 232 231 163 166 158 173 84 99
131 134 130 130 127 134 139 139 133 132 133 136 140 141 141 141 137 133 123 124 130 132 132 132 113 46 311 313 279 261 276 286 295 303 249 227 211 186 210 154 135 111 270
126 126 128 127 132 134 134 134 134 133 136 137 138 139 132 121 126 127 140 133 136 151 137 116 93 204 234 296 347 18 331 290 316 294 270 241 240 214 162 157 120 152 216
107 117 126 135 135 136 139 144 140 138 135 133 133 131 129 131 137 135 129 132 137 135 144 152 169 168 257 277 274 322 313 355 338 290 272 272 273 220 162 167 176 168 179
122 117 123 126 128 136 142 142 140 146 150 147 144 146 150 152 155 142 142 146 131 123 146 84 325 298 287 306 320 315 298 292 329 293 273 283 287 293 211 193 174 118 80
120 136 148 148 149 155 149 149 151 148 147 146 156 154 158 161 171 169 178 169 151 136 83 104 265 267 289 303 271 274 275 266 203 1 16 6 319 278 181 129 151 151 162
154 151 150 153 156 163 156 151 147 149 142 146 146 164 178 177 190 190 191 176 141 138 169 200 230 282 310 257 263 268 263 279 276 302 340 13 22 53 57 351 164 181 125
136 149 156 164 162 160 152 153 158 154 155 159 170 176 187 195 188 206 193 186 185 180 209 209 211 224 268 272 256 243 272 308 246 283 357 26 17 25 20 17 9 103 144
114 109 150 148 138 155 156 158 167 172 173 169 165 173 211 215 230 208 229 229 233 230 227 207 217 236 251 255 258 230 230 233 259 256 274 275 285 312 39 32 32 32 32
150 153 165 171 171 179 180 169 176 192 195 187 188 202 204 201 206 216 212 218 235 231 217 214 202 213 242 248 253 258 230 227 243 245 257 254 250 58 121 95 76 80 69
76 105 135 171 176 181 189 194 196 198 201 195 196 214 213 207 204 193 205 217 231 237 214 214 200 207 248 264 258 240 233 240 249 254 249 217 179 197 209 145 191 171 188
18 34 24 25 154 170 225 224 223 227 228 211 212 208 208 215 217 195 201 201 201 206 167 150 180 219 232 238 241 239 235 234 235 243 231 221 216 209 210 171 192 198 231
34 51 30 339 238 239 217 240 231 252 240 237 235 213 214 230 184 184 203 216 203 193 180 204 216 220 223 236 249 245 232 235 235 233 227 224 219 212 208 197 196 212 223
7 0 353 347 337 313 266 252 271 238 241 235 236 236 234 221 223 225 229 229 221 220 201 201 212 213 217 212 236 248 248 235 200 218 226 222 218 211 209 212 213 219 222
354 355 348 341 336 332 329 316 299 284 275 261 238 242 241 236 230 225 229 233 215 216 186 209 214 216 215 216 220 233 243 235 216 224 220 217 215 216 213 219 218 220 224
1 339 335 334 327 316 298 278 273 271 267 266 252 244 241 241 234 229 228 214 212 206 210 219 218 214 216 213 229 233 230 223 208 203 220 217 213 210 221 223 223 221 222
344 325 319 324 317 322 319 306 292 279 275 266 256 249 247 240 218 212 222 197 196 205 212 229 224 221 218 218 217 222 223 231 222 217 222 215 217 214 223 221 223 219 219
316 319 330 317 317 320 317 322 319 306 296 288 282 265 250 225 233 222 219 219 225 227 230 235 235 228 222 220 216 216 219 227 218 220 218 217 217 224 225 231 229 223 223
313 317 316 311 320 320 316 315 309 320 337 336 325 314 322 317 251 241 240 238 241 242 241 241 244 238 232 227 224 226 224 222 226 218 218 216 216 225 230 230 230 227 222
261 287 290 290 297 301 304 305 308 311 313 312 317 324 357 7 18 21 7 29 346 315 283 254 256 258 245 244 233 236 242 238 233 227 223 224 221 220 218 224 223 224 223
251 257 263 273 267 279 281 287 288 289 298 297 304 300 303 316 314 313 315 320 320 306 299 314 304 296 280 267 250 242 246 253 241 236 235 239 236 233 229 228 227 227 230
233 248 248 251 270 276 282 276 274 275 279 278 282 287 281 282 289 294 298 289 289 280 291 300 299 315 307 322 311 321 340 333 280 239 240 241 245 242 235 233 235 237 231
248 262 272 271 265 265 270 277 277 278 285 290 285 286 285 281 286 289 285 275 274 272 292 290 290 294 299 297 300 306 305 300 303 303 306 250 239 238 234 234 240 238 237